Address 0x7e67a64c6c675538155262dfd6f8eef494d74041

 
 
Txn Hash Method
Block
From
To
Value [Txn Fee]
0xa745241103e1a3bba12767973f43b35d3be8cc15f2400fd334ff552453abd877Transfer99060152021-08-10 10:01:3438 days 22 hrs ago0x7e67a64c6c675538155262dfd6f8eef494d74041OUT0xe52d005e7de2dcd1bf4ed718a4ea235cd897aab30.0018502297 BNB0.0001071
0x27fd1101e597b6c440c3d7c0f6e412e390bfd3f2f6aed79bd860e4e17fe958acTransfer99060102021-08-10 10:01:1938 days 22 hrs ago0x7e67a64c6c675538155262dfd6f8eef494d74041OUT BUSD-T Stablecoin0 BNB0.0001077477
0x0cf9419db94434c595dc492160209c48589824aa98f969d8948db8c1074d26cfSwap Exact Token...99059892021-08-10 10:00:1638 days 22 hrs ago0x7e67a64c6c675538155262dfd6f8eef494d74041OUT 0xa4ce57f063a610290eeef0564b034278438d06cf0 BNB0.0013850682
0x316510f45cbeecd91da4e1d041d10fc6a109446eca49186e284e80f85da3c62bRemove Liquidity...99001222021-08-10 4:38:5739 days 3 hrs ago0x7e67a64c6c675538155262dfd6f8eef494d74041OUT 0xa4ce57f063a610290eeef0564b034278438d06cf0 BNB0.0017307156
0x8df336e66c010c38b3b30bc38e3f60717d7439029764001fea9301b28d025849Un Stake99001072021-08-10 4:38:1239 days 3 hrs ago0x7e67a64c6c675538155262dfd6f8eef494d74041OUT 0x252fde22c7d20aca62a840ca3b66fb0e206ead340 BNB0.00158077
0xd0c924d6ec0dedcc802e944c57561ea3c962ced47b3611ac3f56c44b6f359104Swap Exact Token...98944312021-08-09 23:53:0039 days 8 hrs ago0x7e67a64c6c675538155262dfd6f8eef494d74041OUT 0xa4ce57f063a610290eeef0564b034278438d06cf0 BNB0.0013849458
0x711cb0f44e37ead24b099d30cae7f39f19afcfe45fd219aad866315ce178b7d6Swap Exact Token...98842202021-08-09 15:20:5839 days 16 hrs ago0x7e67a64c6c675538155262dfd6f8eef494d74041OUT 0xa4ce57f063a610290eeef0564b034278438d06cf0 BNB0.0013849458
0xb1b42d19aaa0ec8bca29d4a320eada7d9a3124665cf8917a192d5532533b7210Transfer97899402021-08-06 6:24:5043 days 1 hr ago0x7e67a64c6c675538155262dfd6f8eef494d74041OUT BUSD-T Stablecoin0 BNB0.0001841865
0x79981c2e4064554517e79e2a6cc2d0a02a4672ead75910245901de1edad7b79dSwap Exact Token...97855262021-08-06 2:37:1843 days 5 hrs ago0x7e67a64c6c675538155262dfd6f8eef494d74041OUT 0xa4ce57f063a610290eeef0564b034278438d06cf0 BNB0.0013849458
0x6e41f6b6994dd32468ffbe31abb340f77f8fcf68f3da916e83f26b67549019e6Transfer97125212021-08-03 11:46:1045 days 20 hrs ago0x7e67a64c6c675538155262dfd6f8eef494d74041OUT0x7def5ceeace0859d179818c926aca52a1bd6d0990.01 BNB0.0001071
0xae2f494e962abd993f7e83d69515db92e4c11d7e86c37d9b53bf5e310f97ead6Swap Exact Token...97113912021-08-03 10:48:0145 days 21 hrs ago0x7e67a64c6c675538155262dfd6f8eef494d74041OUT 0xa4ce57f063a610290eeef0564b034278438d06cf0 BNB0.0013849458
0xe107ccf4829856691776b2ef773938a7e2360066bb4779e9c6de41472e072a62Stake97112352021-08-03 10:40:1345 days 21 hrs ago0x7e67a64c6c675538155262dfd6f8eef494d74041OUT 0x252fde22c7d20aca62a840ca3b66fb0e206ead340 BNB0.001990705
0x18ee82b3e11cf9c9c5a8d9f2b030940bdfd454eee6ea854c4748338e04ef13cbApprove97112302021-08-03 10:39:5845 days 21 hrs ago0x7e67a64c6c675538155262dfd6f8eef494d74041OUT 0x5c3e370abf69bcb47a5e94503c99d8abedfa20670 BNB0.00022051
0x1b6fbb2985face2f29190a76773356b412dbe2842fa3cf138326e6d1429994bdSwap Exact Token...96786822021-08-02 6:03:5347 days 2 hrs ago0x7e67a64c6c675538155262dfd6f8eef494d74041OUT 0xa4ce57f063a610290eeef0564b034278438d06cf0 BNB0.0013849458
0xf6a1c87be6372a445fba4ef26f552b3b335580e50e4e3bfd9c1d96c7f433180aSwap Exact Token...96786482021-08-02 6:02:0847 days 2 hrs ago0x7e67a64c6c675538155262dfd6f8eef494d74041OUT 0xa4ce57f063a610290eeef0564b034278438d06cf0 BNB0.0013849458
0xf2ea883c30b99cad2c874635057743219081d76202fdb198a5cf13103b10290fAdd Liquidity96550242021-08-01 9:34:4347 days 22 hrs ago0x7e67a64c6c675538155262dfd6f8eef494d74041OUT 0xa4ce57f063a610290eeef0564b034278438d06cf0 BNB0.0015190095
0x5d11e8b3301f8fafee36394296c9ddc70b9492c7dc76f5284035ab8eec325642Approve96550142021-08-01 9:34:1047 days 22 hrs ago0x7e67a64c6c675538155262dfd6f8eef494d74041OUT BUSD-T Stablecoin0 BNB0.0002264706
0x00799c7029201f977253aab87466a54d51a78a6973580c1ee8b565f6c355d2f4Swap Exact Token...96533032021-08-01 8:04:1348 days 13 mins ago0x7e67a64c6c675538155262dfd6f8eef494d74041OUT 0xa4ce57f063a610290eeef0564b034278438d06cf0 BNB0.0013848846
0xced45ba2c55fc71d66994bc911d31d9155b7079aaae74894aced431595bc006bSwap Exact Token...96531952021-08-01 7:58:4948 days 18 mins ago0x7e67a64c6c675538155262dfd6f8eef494d74041OUT 0xa4ce57f063a610290eeef0564b034278438d06cf0 BNB0.0014614458
0xb998b78bb0fe5f6aba44d33c39ae020f3df960a4697723d44336835c5940ae89Approve96526642021-08-01 7:32:1248 days 45 mins ago0x7e67a64c6c675538155262dfd6f8eef494d74041OUT 0x26b2ead96b72d4d63925f30e64a71122c27b27950 BNB0.0002267052
0xcb4f708434c259b43321fe2b66c0ff051b8c220dfb5600a24e8b4d414ad2d29fClaim94545542021-07-25 3:18:5955 days 4 hrs ago0x7e67a64c6c675538155262dfd6f8eef494d74041OUT 0x54f47747f997f769fbe412e590f225dd41959d4f0 BNB0.000957276
0x70d47918043b8939221414420662aa747f8e38711ef50b95d69e4b4ed98bc672Swap93797782021-07-22 12:39:5657 days 19 hrs ago0x7e67a64c6c675538155262dfd6f8eef494d74041OUT 0x54f47747f997f769fbe412e590f225dd41959d4f0 BNB0.001297338
0x03482f29cb08f920a814878b76f461b063c663c2e80b240d54e8e2214c79d680Approve93797732021-07-22 12:39:4157 days 19 hrs ago0x7e67a64c6c675538155262dfd6f8eef494d74041OUT BUSD-T Stablecoin0 BNB0.0001275714
0xcacdf6f2754c4b9eb7d5748067e45ab75963079f0a62d52a031c748d9d402df2Approve93797672021-07-22 12:39:2357 days 19 hrs ago0x7e67a64c6c675538155262dfd6f8eef494d74041OUT BUSD-T Stablecoin0 BNB0.0002254914
0xcd026c2970cf1156df07d2b67c12583144cded5a831b97ec725d7194eaf39f26Transfer93797422021-07-22 12:38:0857 days 19 hrs ago0xe52d005e7de2dcd1bf4ed718a4ea235cd897aab3 IN 0x7e67a64c6c675538155262dfd6f8eef494d740410.035 BNB0.0001071
[ Download CSV Export 
Parent Txn Hash Block From To Value
Loading

Contract Name:
0 BNB

Compiler Version
0

Optimization Enabled:
0 BNB

Other Settings:
-NA-
Block Transaction Gas Used Reward
Age Block Fee Address BC Fee Address Voting Power Jailed Incoming
Block Uncle Number Difficulty Gas Used Reward
Loading
Loading
Make sure to use the "Vote Down" button for any spammy posts, and the "Vote Up" for interesting conversations.